Wind_Speed
33 31 31 31 29 28 30 31 29 27 27 24 19 17 16 14 12 11 13 13 12 11 9 9 9 9 10 10 10 10 10 11 12 12 13 13 13 14 14 14 15 15 15 14
35 34 33 32 30 28 29 29 29 28 28 25 21 20 18 17 14 14 16 15 13 12 11 10 10 10 11 11 11 11 12 12 13 13 14 15 15 15 14 14 15 15 16 15
37 36 36 35 30 29 28 29 29 28 27 25 25 23 22 21 19 19 19 18 16 14 12 12 12 12 12 12 12 13 13 13 14 14 15 15 15 15 15 15 15 15 16 16
37 37 39 35 32 30 30 29 29 29 28 27 26 26 26 25 23 22 21 20 18 15 14 14 13 13 13 13 13 13 13 14 15 15 15 15 16 16 16 16 16 16 16 17
38 38 39 37 34 32 32 31 30 29 28 28 28 28 28 27 25 24 22 21 20 18 17 16 15 15 15 15 15 15 15 16 16 16 16 16 17 17 17 16 17 17 18 18
39 39 39 37 36 34 34 34 31 30 29 28 28 29 29 28 27 26 25 24 21 20 19 18 17 16 16 16 16 17 17 18 17 17 17 18 18 18 17 18 18 18 18 19
40 40 39 37 36 36 36 34 32 31 31 30 30 29 28 27 26 25 25 25 22 21 20 20 19 18 18 17 17 18 19 19 18 18 19 19 18 18 18 19 19 19 19 20
40 40 40 38 38 39 38 35 34 33 33 33 32 31 29 27 27 27 25 25 24 23 22 21 21 20 20 20 19 20 20 20 20 20 20 20 20 20 20 20 20 20 20 20
40 40 39 39 39 39 38 37 36 35 35 35 34 33 32 31 30 29 28 28 27 25 23 23 23 22 22 21 21 21 21 22 22 22 22 21 21 22 21 22 22 22 22 22
41 40 40 39 39 39 39 38 36 35 36 36 36 34 34 33 31 31 30 29 28 27 26 25 25 24 23 23 24 23 23 24 24 24 23 23 23 23 23 23 23 23 23 23
41 41 40 41 40 40 39 39 38 37 38 36 36 36 36 35 33 31 31 30 29 28 28 27 27 26 25 25 25 25 25 25 25 25 25 25 24 24 24 24 24 24 24 24
40 39 40 41 41 41 41 40 39 39 39 38 37 38 37 36 35 33 32 31 30 30 28 28 27 27 26 26 27 27 27 27 26 26 26 25 24 24 24 24 25 25 24 25
39 39 39 40 41 41 41 41 40 40 40 40 39 38 38 38 36 35 33 32 31 30 29 29 29 29 28 28 28 28 27 27 27 27 27 26 25 25 25 25 25 25 25 26
39 39 39 40 39 41 40 40 40 39 39 38 38 38 38 37 36 35 34 33 33 31 30 30 30 29 29 29 29 28 28 28 28 27 27 27 26 26 26 26 25 25 26 26
39 39 38 37 38 38 37 36 37 37 37 37 37 38 37 36 36 36 34 34 34 32 31 30 30 30 30 30 29 29 29 29 28 28 28 28 27 27 27 26 26 26 27 27
37 38 38 37 37 38 37 36 36 36 36 36 36 37 38 36 34 33 33 33 33 32 31 30 30 31 30 31 30 30 30 30 30 29 28 28 28 28 28 27 27 27 27 27
34 35 34 33 35 36 37 36 36 36 35 35 36 36 36 35 33 32 32 32 32 31 31 30 30 30 30 30 30 30 30 30 30 29 28 27 28 28 28 28 28 27 27 27
32 32 31 31 32 33 34 35 35 34 33 33 34 35 34 33 32 31 31 30 30 30 30 30 30 30 30 29 30 29 29 29 29 30 28 28 29 29 29 29 28 27 28 28
29 29 30 29 29 30 31 31 31 31 31 31 31 31 31 31 31 31 31 30 29 29 29 30 29 29 29 29 29 29 29 29 30 29 29 29 29 29 29 28 28 28 28 28
27 27 27 26 26 27 29 30 29 29 29 30 29 29 29 29 29 29 29 29 28 28 28 28 28 28 28 28 29 29 29 29 29 29 29 29 29 28 27 27 28 27 27 27
23 23 24 25 26 25 25 26 26 27 27 27 27 27 28 27 27 26 26 26 27 27 27 27 27 28 28 28 29 29 29 29 28 28 28 28 27 27 26 27 27 27 27 27
21 22 22 22 23 23 24 25 25 26 26 26 26 27 27 26 25 25 26 26 27 26 27 27 27 27 27 28 28 28 27 27 27 26 26 26 26 26 26 26 27 27 27 27
20 20 21 21 22 22 23 24 25 25 26 26 26 25 25 26 26 26 26 26 26 26 26 26 26 26 26 26 26 26 26 26 25 25 25 25 25 25 26 26 26 26 26 26
20 21 21 22 23 22 23 24 24 25 25 25 25 25 25 26 26 26 26 26 25 25 25 25 25 25 25 25 25 26 25 25 24 24 25 25 25 25 25 25 25 26 26 26
21 22 22 22 23 23 22 23 24 24 25 25 25 25 25 26 27 27 27 26 26 25 25 25 25 25 25 25 25 25 24 24 24 24 23 24 24 24 24 24 24 25 25 25
21 22 22 23 23 23 23 23 23 23 24 24 25 25 25 25 26 26 26 26 26 26 25 24 24 25 25 25 25 25 25 25 25 24 24 24 23 22 23 24 24 24 24 24
21 22 23 23 23 23 23 23 23 23 24 24 23 24 24 24 24 25 26 26 26 25 25 24 24 24 25 25 25 25 25 25 24 24 23 23 22 22 22 23 23 23 24 24
Wind_Direction
218 216 217 219 219 221 225 229 233 235 238 241 246 254 260 259 260 264 271 279 281 285 284 288 293 300 307 314 317 320 326 332 335 334 334 333 331 330 331 333 333 332 331 329
218 218 219 220 220 221 225 229 235 236 236 238 244 250 256 258 260 263 270 275 275 280 284 283 286 291 297 302 307 313 319 323 325 326 327 326 327 327 328 330 331 333 332 331
220 220 220 222 223 223 224 227 232 234 236 236 241 245 253 259 262 264 267 272 271 274 275 275 281 287 289 293 297 305 310 314 316 318 320 320 323 327 331 332 332 332 331 330
221 219 221 221 222 224 226 227 230 232 233 234 239 246 251 256 261 264 266 270 273 275 272 274 276 280 283 286 290 296 302 306 309 311 314 318 320 323 324 326 327 329 329 328
223 223 223 221 223 226 227 228 229 232 234 237 240 244 248 253 256 261 262 265 272 277 275 275 275 277 281 285 288 292 297 302 304 307 309 313 316 318 318 318 321 323 325 325
224 225 224 222 223 226 228 230 229 231 234 237 241 245 248 253 255 257 262 266 268 273 274 273 274 276 279 281 286 290 294 299 301 303 305 309 311 313 313 314 315 318 321 322
226 228 228 225 223 225 229 230 231 232 234 236 240 246 250 252 256 259 262 264 266 269 270 270 271 275 276 278 283 289 293 297 297 301 304 306 306 308 309 310 311 312 315 317
227 229 228 226 226 227 230 232 233 234 235 236 239 245 248 250 253 257 261 262 263 264 265 266 270 272 273 276 281 287 291 294 295 298 300 302 304 305 305 306 307 308 310 311
229 230 230 229 229 229 231 233 233 234 236 237 240 244 248 250 253 255 260 263 264 263 265 266 268 270 272 276 279 285 290 292 293 296 297 298 299 301 303 304 304 304 306 307
228 228 229 230 230 230 231 232 233 235 236 236 238 241 245 249 251 254 257 261 262 262 264 265 268 270 271 275 280 284 287 290 292 294 295 296 297 298 299 301 302 303 304 306
228 229 230 230 231 232 232 232 234 236 236 236 239 241 245 248 251 253 255 259 263 262 262 265 268 270 271 275 279 282 284 287 289 290 291 293 294 296 297 298 300 301 303 305
229 230 230 230 231 233 234 235 236 237 237 240 242 244 245 248 250 252 254 257 260 262 264 265 267 268 271 275 278 281 282 284 285 286 288 289 291 293 295 296 297 299 301 305
230 231 232 231 232 234 235 237 238 239 240 242 245 246 248 247 249 252 253 256 259 260 262 265 267 268 270 274 276 278 279 281 283 284 285 286 288 290 292 294 296 299 301 304
230 233 236 234 234 234 237 239 240 240 241 243 245 247 248 248 247 250 251 254 258 259 262 264 266 267 270 272 274 275 277 279 281 283 283 285 287 289 290 292 295 298 301 302
232 235 236 236 235 236 238 239 240 240 241 242 245 247 248 249 248 249 251 253 256 258 260 263 263 266 269 271 272 274 276 277 279 281 282 283 286 289 291 292 294 295 298 300
232 233 234 234 235 237 239 239 240 241 242 244 245 247 249 250 249 247 249 253 255 258 260 262 263 265 267 270 272 275 278 278 278 279 281 283 285 288 290 292 293 294 295 297
231 232 233 232 235 238 239 240 241 240 241 243 244 246 248 247 247 246 249 253 256 257 258 260 262 264 265 269 272 274 278 279 280 280 280 282 284 286 288 290 292 292 293 296
233 230 230 233 236 237 238 241 242 241 244 247 246 247 247 246 245 248 250 252 255 257 258 259 261 262 265 269 271 273 276 278 280 284 282 281 283 285 286 287 289 291 292 293
231 232 232 233 235 236 237 240 242 244 245 244 243 245 246 246 248 250 251 253 255 258 261 262 262 262 264 267 270 272 276 278 281 283 283 283 283 284 285 286 288 289 289 291
235 234 232 231 232 235 237 238 242 244 243 242 242 243 244 245 250 252 252 254 256 258 260 262 262 262 264 267 271 274 276 278 280 283 284 285 285 285 284 285 287 289 290 292
231 230 231 233 235 237 238 239 242 243 242 242 244 245 246 248 252 255 256 256 256 257 259 262 264 266 267 269 272 275 276 278 280 282 283 285 285 283 283 284 286 288 289 291
231 235 237 238 238 239 241 243 244 243 243 244 245 247 248 250 252 255 258 259 258 259 261 262 265 266 268 271 273 275 276 278 280 281 282 284 284 283 283 284 285 286 288 289
233 234 236 237 239 242 244 246 247 248 249 249 250 251 251 253 254 255 257 259 260 260 262 263 266 267 270 273 273 273 274 276 279 281 282 283 284 285 285 285 285 285 286 288
234 237 238 240 242 245 245 245 247 250 250 250 252 253 254 254 254 254 255 257 260 262 264 265 267 269 271 273 273 273 274 277 280 281 281 283 284 285 286 286 286 287 288 290
236 237 240 243 244 245 244 243 246 249 249 250 251 253 254 254 253 254 256 259 261 264 265 265 267 270 272 273 272 273 276 280 281 281 282 283 284 284 284 285 286 288 289 289
238 241 244 244 245 246 248 249 249 250 250 251 252 253 254 254 252 253 255 258 261 263 264 265 267 269 270 270 272 274 277 279 280 281 281 282 283 283 283 284 286 288 289 289
243 244 246 247 248 249 250 251 251 252 251 250 250 251 254 255 254 255 256 258 259 261 263 265 266 268 268 270 273 274 274 275 277 280 281 280 281 283 284 284 286 288 289 290
Height
5869 5873 5877 5881 5885 5888 5891 5894 5897 5900 5902 5905 5906 5908 5910 5911 5911 5913 5914 5914 5914 5914 5914 5914 5913 5913 5912 5911 5910 5908 5907 5905 5903 5902 5899 5897 5894 5892 5890 5887 5885 5882 5879 5877
5863 5867 5871 5875 5879 5882 5885 5889 5891 5894 5897 5900 5902 5903 5905 5906 5907 5909 5910 5911 5911 5911 5910 5910 5910 5910 5910 5909 5908 5906 5905 5903 5901 5899 5897 5895 5892 5890 5887 5885 5882 5880 5877 5875
5856 5861 5864 5869 5874 5877 5879 5882 5885 5888 5892 5894 5896 5897 5900 5901 5903 5904 5906 5906 5907 5907 5907 5907 5907 5907 5906 5906 5905 5904 5902 5901 5899 5897 5895 5892 5890 5887 5885 5882 5880 5877 5875 5872
5849 5854 5857 5865 5868 5870 5873 5877 5879 5882 5885 5888 5890 5892 5894 5896 5897 5898 5900 5902 5902 5902 5903 5903 5903 5903 5903 5902 5901 5900 5899 5897 5896 5894 5891 5889 5887 5884 5882 5879 5877 5875 5872 5869
5841 5845 5850 5857 5861 5864 5867 5870 5873 5876 5879 5881 5883 5886 5888 5890 5892 5894 5895 5896 5897 5898 5898 5899 5899 5899 5898 5898 5897 5896 5895 5894 5892 5890 5888 5886 5883 5881 5879 5876 5874 5871 5869 5866
5833 5837 5842 5850 5855 5857 5861 5863 5867 5870 5873 5875 5878 5880 5883 5885 5886 5888 5890 5890 5891 5892 5893 5894 5894 5894 5894 5893 5893 5892 5891 5889 5888 5886 5884 5882 5880 5877 5875 5873 5870 5868 5865 5862
5826 5829 5835 5842 5846 5850 5854 5858 5862 5864 5867 5870 5872 5875 5878 5879 5880 5881 5883 5884 5885 5887 5888 5889 5889 5889 5889 5888 5888 5887 5886 5885 5883 5882 5880 5878 5875 5873 5871 5868 5866 5863 5861 5858
5818 5822 5829 5834 5837 5842 5846 5850 5854 5858 5860 5863 5866 5869 5871 5873 5874 5875 5876 5878 5879 5880 5882 5883 5883 5883 5883 5883 5882 5882 5881 5879 5878 5876 5875 5873 5870 5868 5866 5863 5861 5859 5856 5853
5811 5816 5821 5825 5829 5833 5838 5842 5846 5850 5854 5856 5859 5862 5864 5866 5867 5868 5871 5872 5873 5874 5875 5876 5877 5877 5877 5876 5876 5876 5875 5873 5872 5871 5869 5867 5865 5862 5860 5858 5855 5853 5851 5848
5802 5807 5812 5816 5821 5825 5830 5834 5838 5841 5845 5848 5851 5854 5856 5859 5860 5862 5863 5865 5866 5868 5869 5870 5870 5870 5871 5871 5870 5869 5869 5867 5866 5864 5862 5860 5858 5856 5854 5852 5849 5847 5844 5842
5793 5798 5803 5808 5812 5817 5821 5826 5830 5833 5836 5839 5842 5845 5848 5851 5853 5854 5856 5858 5859 5860 5862 5862 5863 5863 5863 5863 5863 5862 5861 5860 5859 5857 5855 5854 5852 5850 5847 5845 5843 5841 5838 5835
5785 5790 5794 5799 5803 5807 5812 5816 5821 5824 5828 5831 5833 5836 5839 5841 5844 5846 5848 5850 5852 5853 5854 5855 5855 5855 5855 5855 5855 5854 5854 5852 5851 5850 5848 5846 5844 5843 5840 5839 5836 5834 5832 5829
5777 5782 5786 5790 5795 5798 5803 5807 5811 5815 5819 5822 5824 5826 5829 5831 5834 5836 5839 5841 5843 5844 5846 5846 5847 5847 5847 5847 5847 5846 5845 5844 5843 5842 5840 5839 5837 5835 5834 5832 5829 5827 5824 5822
5769 5774 5778 5781 5785 5789 5793 5797 5801 5805 5809 5812 5815 5817 5819 5821 5824 5826 5829 5832 5833 5835 5837 5837 5838 5838 5838 5838 5838 5838 5837 5836 5835 5834 5832 5831 5829 5828 5826 5824 5822 5819 5817 5815
5762 5766 5769 5772 5776 5780 5784 5788 5792 5796 5800 5803 5805 5808 5810 5812 5814 5817 5819 5822 5824 5825 5827 5828 5829 5829 5829 5829 5829 5829 5828 5828 5827 5825 5824 5823 5821 5820 5818 5816 5814 5812 5810 5807
5754 5758 5761 5764 5769 5773 5775 5778 5782 5786 5790 5793 5796 5798 5801 5803 5804 5806 5810 5812 5814 5816 5818 5819 5819 5820 5820 5820 5820 5820 5819 5819 5818 5817 5816 5814 5813 5812 5810 5808 5806 5804 5802 5800
5746 5750 5753 5756 5761 5765 5768 5771 5774 5778 5780 5783 5786 5789 5791 5793 5796 5798 5801 5803 5805 5807 5808 5810 5810 5811 5811 5811 5811 5811 5810 5810 5809 5808 5807 5806 5805 5803 5801 5800 5798 5796 5794 5792
5739 5742 5746 5750 5753 5757 5760 5763 5765 5769 5771 5774 5778 5780 5782 5784 5787 5790 5792 5794 5796 5797 5799 5800 5801 5802 5802 5802 5802 5802 5802 5801 5800 5799 5798 5797 5796 5794 5793 5791 5789 5788 5786 5783
5732 5736 5739 5743 5746 5748 5752 5755 5758 5761 5763 5766 5769 5771 5773 5776 5778 5780 5782 5785 5787 5789 5790 5791 5792 5792 5793 5793 5793 5793 5793 5793 5792 5790 5789 5788 5786 5785 5784 5782 5781 5779 5777 5775
5726 5729 5733 5736 5738 5741 5745 5748 5751 5754 5756 5759 5761 5764 5766 5768 5770 5771 5773 5776 5779 5781 5782 5782 5783 5783 5784 5784 5784 5784 5784 5784 5783 5782 5781 5779 5778 5776 5775 5774 5772 5771 5769 5767
5720 5723 5726 5729 5731 5735 5739 5742 5744 5747 5749 5752 5755 5757 5759 5762 5763 5764 5766 5769 5771 5772 5773 5774 5774 5775 5775 5776 5776 5776 5775 5775 5774 5773 5772 5770 5769 5768 5766 5765 5764 5763 5761 5759
5715 5718 5720 5723 5724 5729 5732 5735 5738 5740 5743 5745 5748 5751 5753 5755 5756 5758 5760 5762 5763 5764 5765 5766 5766 5766 5767 5767 5767 5767 5767 5766 5765 5764 5763 5762 5760 5759 5758 5757 5756 5754 5752 5751
5710 5713 5716 5718 5721 5723 5726 5728 5731 5734 5736 5739 5741 5744 5745 5748 5749 5751 5753 5754 5755 5756 5757 5757 5758 5758 5758 5759 5759 5759 5758 5758 5757 5756 5755 5754 5752 5751 5750 5749 5747 5746 5744 5742
5706 5709 5711 5713 5716 5718 5720 5722 5724 5726 5729 5731 5733 5736 5738 5740 5742 5743 5745 5746 5747 5748 5748 5749 5749 5750 5750 5750 5750 5750 5750 5749 5748 5747 5746 5745 5744 5743 5742 5740 5739 5737 5736 5734
5702 5704 5706 5708 5710 5711 5713 5715 5717 5720 5722 5724 5726 5728 5730 5732 5733 5735 5737 5738 5739 5740 5741 5741 5741 5742 5742 5742 5742 5742 5742 5741 5740 5740 5739 5738 5736 5735 5734 5732 5731 5729 5728 5726
5696 5698 5700 5702 5704 5705 5707 5709 5711 5713 5715 5717 5718 5720 5722 5723 5725 5727 5728 5730 5731 5732 5733 5733 5733 5734 5734 5734 5734 5734 5734 5733 5733 5732 5731 5730 5729 5727 5726 5724 5723 5721 5719 5718
5690 5692 5694 5695 5697 5699 5701 5702 5704 5706 5707 5709 5711 5713 5714 5716 5717 5719 5720 5722 5723 5724 5725 5725 5726 5726 5726 5726 5726 5726 5726 5725 5724 5724 5723 5722 5721 5720 5718 5716 5715 5713 5711 5710